Location: Bu�n Treun
(12.1333°N, 108.3167°E)
Time: 23:57:40
(UTC+00:00)

FENGYUN 3A - Pass Details

Date: 13 July 2020
Orbit: 824 x 836 km, 98.4° (Epoch: 03 August)

Event Time Altitude Azimuth Distance (km) Brightness Sun altitude
Rises 21:35:04 0° 5° (N) 3,367 7.3 -13.0°
Reaches altitude 10° 21:37:27 10° 1° (N) 2,432 6.5 -12.4°
Maximum altitude 21:42:44 58° 283° (WNW) 957 3.8 -11.3°
Drops below altitude 10° 21:48:00 10° 205° (SSW) 2,424 5.6 -10.1°
Enters shadow 21:49:56 - 202° (SSW) 3,178 6.3 -9.7°
